IR0UGI-3 Weather Reports


time (UTC)temp
F
wind
direction
speed
knots
gust
knots
rain 1hr
in
rain 24hr
in
rain mn
in
humidity
%
barometer
mb
20260508071004 49 186 7.8 11.3 0.00 0.05 0.05 78 1021.0
20260508070005 49 193 8.7 11.3 0.00 0.05 0.05 78 1021.0
20260508065004 49 202 9.6 11.3 0.00 0.05 0.05 79 1020.8
20260508063005 49 202 8.7 13.0 0.00 0.05 0.05 80 1021.0
20260508062005 49 200 10.4 12.2 0.00 0.05 0.05 79 1020.8
20260508061005 48 203 9.6 13.9 0.00 0.05 0.05 80 1020.8
20260508055005 48 206 9.6 15.6 0.00 0.05 0.05 84 1020.4
20260508054005 47 208 10.4 14.8 0.00 0.05 0.05 83 1020.2
20260508053005 47 194 10.4 14.8 0.00 0.05 0.05 86 1020.2
20260508052005 47 185 13.0 14.8 0.00 0.05 0.05 88 1020.1
20260508050005 46 202 13.0 19.1 0.00 0.05 0.05 88 1019.9
20260508045005 47 199 14.8 20.0 0.00 0.05 0.05 86 1019.8
20260508044005 47 186 13.0 18.2 0.01 0.05 0.05 84 1020.0
20260508043004 46 187 11.3 19.1 0.01 0.05 0.05 86 1019.9
20260508042005 46 184 13.9 19.1 0.01 0.05 0.05 86 1019.6
20260508035004 47 196 13.9 17.4 0.05 0.05 0.05 85 1019.8
20260508034005 47 186 7.8 17.4 0.04 0.04 0.04 86 1019.9
20260508033005 47 185 13.0 17.4 0.04 0.04 0.04 86 1020.0
20260508032005 47 163 12.2 17.4 0.04 0.04 0.04 87 1019.7
20260508030005 48 169 7.8 13.9 0.01 0.01 0.01 82 1019.9
20260508025005 49 165 8.7 14.8 0.00 0.00 0.00 77 1020.0
20260508024004 50 166 8.7 14.8 0.00 0.00 0.00 73 1019.9
20260508023005 50 165 10.4 19.1 0.00 0.00 0.00 73 1019.7
20260508022005 51 173 13.9 19.1 0.00 0.00 0.00 66 1019.9
20260508021004 51 171 8.7 13.0 0.00 0.00 0.00 67 1020.1
20260508015005 51 183 8.7 13.0 0.00 0.00 0.00 67 1020.3
20260508014005 52 188 8.7 17.4 0.00 0.00 0.00 65 1020.2
20260508013005 52 213 3.5 13.9 0.00 0.00 0.00 68 1020.3
20260508012005 51 166 7.0 11.3 0.00 0.00 0.00 72 1020.2
20260508011005 52 175 7.8 13.9 0.00 0.00 0.00 71 1020.0
20260508010005 52 176 10.4 15.6 0.00 0.00 0.00 68 1020.0
20260508005004 52 174 8.7 18.2 0.00 0.00 0.00 68 1019.9
20260508004005 52 174 13.0 17.4 0.00 0.00 0.00 68 1019.8
20260508003005 52 179 12.2 15.6 0.00 0.00 0.00 69 1019.9
20260508002005 52 177 12.2 17.4 0.00 0.00 0.00 72 1019.8
20260508001004 52 178 14.8 18.2 0.00 0.00 0.00 68 1020.0
20260508000005 52 179 9.6 12.2 0.00 0.00 0.00 69 1020.4
20260507235005 52 185 7.8 13.0 0.00 0.00 0.00 70 1020.7
20260507234005 52 178 7.8 13.0 0.00 0.00 0.00 73 1020.5
20260507233004 52 191 8.7 11.3 0.00 0.00 0.00 74 1020.9
20260507232004 52 200 7.8 9.6 0.00 0.00 0.00 77 1020.8
20260507230005 52 212 7.8 11.3 0.00 0.00 0.00 77 1021.0
20260507225005 52 214 7.0 9.6 0.00 0.00 0.00 78 1021.2
20260507224004 51 208 7.0 12.2 0.00 0.00 0.00 80 1020.9
20260507223004 51 212 9.6 13.0 0.00 0.00 0.00 79 1021.1
20260507222004 51 212 10.4 14.8 0.00 0.00 0.00 79 1021.0
20260507221005 51 208 11.3 15.6 0.00 0.00 0.00 78 1020.9
20260507220008 51 213 12.2 15.6 0.00 0.00 0.00 78 1020.9
20260507215004 51 206 9.6 13.9 0.00 0.00 0.00 77 1020.9
20260507214005 51 209 9.6 12.2 0.00 0.00 0.00 79 1021.1
20260507213004 51 205 7.8 12.2 0.00 0.00 0.00 81 1021.3
20260507212004 51 198 8.7 12.2 0.00 0.00 0.00 83 1021.4
20260507211004 51 199 9.6 11.3 0.00 0.00 0.00 85 1021.4
20260507210005 51 199 8.7 11.3 0.00 0.00 0.00 86 1021.3
20260507205004 51 206 8.7 11.3 0.00 0.00 0.00 87 1021.4
20260507203005 50 201 7.0 11.3 0.00 0.00 0.00 90 1021.4
20260507202005 50 191 9.6 11.3 0.00 0.00 0.00 92 1021.2
20260507200004 50 182 8.7 11.3 0.00 0.00 0.00 94 1021.3
20260507195004 49 181 7.8 12.2 0.00 0.00 0.00 96 1021.2
20260507193004 49 181 7.0 12.2 0.00 0.00 0.00 99 1021.3
20260507192004 49 185 9.6 11.3 0.00 0.00 0.00 99 1021.0
20260507191004 50 185 7.0 7.8 0.00 0.00 0.00 99 1021.2
20260507190005 49 199 4.3 9.6 0.00 0.00 0.00 99 1021.0
20260507185004 50 200 6.1 12.2 0.00 0.00 0.00 99 1021.0
20260507184004 50 200 9.6 13.0 0.00 0.00 0.00 99 1020.7
20260507183004 50 198 9.6 13.0 0.00 0.01 0.00 98 1020.6
20260507180005 52 200 7.0 7.8 0.00 0.01 0.00 78 1020.5
20260507175004 52 210 5.2 7.0 0.00 0.01 0.00 73 1020.9
20260507174004 52 199 6.1 7.8 0.00 0.01 0.00 79 1020.7
20260507173004 52 204 6.1 7.8 0.00 0.01 0.00 79 1020.7
20260507172004 52 214 7.0 7.8 0.00 0.01 0.00 75 1020.7
20260507171004 52 206 5.2 7.0 0.00 0.01 0.00 81 1020.8
20260507165004 52 221 4.3 7.8 0.00 0.01 0.00 81 1020.8
20260507164004 53 226 3.5 9.6 0.00 0.01 0.00 79 1021.0
20260507163004 52 219 6.1 7.8 0.00 0.01 0.00 76 1021.2
20260507161005 51 199 4.3 7.8 0.00 0.01 0.00 96 1021.3
20260507160005 50 199 5.2 7.0 0.00 0.01 0.00 97 1021.3
20260507154005 51 221 4.3 7.0 0.00 0.02 0.00 97 1021.2
20260507153005 51 214 4.3 7.0 0.00 0.02 0.00 95 1021.2
20260507150006 51 228 6.1 11.3 0.00 0.05 0.00 97 1021.3
20260507145005 51 211 7.0 9.6 0.00 0.06 0.00 96 1021.3
20260507144005 51 222 3.5 9.6 0.00 0.08 0.00 98 1021.5
20260507143005 51 213 3.5 12.2 0.00 0.09 0.00 95 1021.4
20260507141007 53 248 4.3 7.0 0.00 0.09 0.00 93 1021.3
20260507140006 53 239 4.3 6.1 0.00 0.09 0.00 95 1021.6
20260507135005 55 242 4.3 6.1 0.00 0.11 0.00 90 1021.8
20260507133005 54 269 2.6 6.1 0.00 0.13 0.00 90 1021.7
20260507132005 55 259 2.6 7.0 0.00 0.13 0.00 86 1021.9
20260507131005 55 261 3.5 9.6 0.00 0.13 0.00 82 1022.1
20260507130005 55 252 3.5 7.0 0.00 0.13 0.00 78 1021.8
20260507125006 56 235 3.5 6.1 0.00 0.14 0.00 78 1022.1
20260507124005 56 270 0.9 6.1 0.00 0.14 0.00 76 1022.2
20260507123005 56 231 1.7 7.0 0.00 0.14 0.00 85 1022.2
20260507122005 56 269 2.6 6.1 0.00 0.14 0.00 81 1022.2
20260507121005 55 269 3.5 7.0 0.00 0.14 0.00 79 1022.3
20260507115005 56 269 2.6 6.1 0.00 0.15 0.00 81 1022.3
20260507113005 57 244 3.5 6.1 0.00 0.19 0.00 82 1022.5
20260507112005 56 260 2.6 7.0 0.00 0.19 0.00 80 1022.6
20260507111005 57 265 1.7 6.1 0.00 0.19 0.00 83 1022.5
20260507105005 56 203 0.9 6.1 0.00 0.19 0.00 86 1022.7
20260507104005 56 231 2.6 7.8 0.00 0.19 0.00 82 1022.6
20260507102007 54 219 4.3 7.8 0.00 0.19 0.00 90 1022.8
20260507100005 53 253 2.6 7.0 0.00 0.19 0.00 91 1022.5
20260507095005 53 227 1.7 7.0 0.00 0.19 0.00 90 1022.6
20260507094005 54 224 3.5 7.8 0.00 0.19 0.00 85 1022.6
20260507092005 51 206 3.5 7.8 0.00 0.19 0.00 96 1022.7
20260507091005 52 206 3.5 7.8 0.00 0.19 0.00 95 1022.5
20260507090006 51 205 4.3 7.8 0.00 0.19 0.00 97 1022.7
20260507085005 51 203 5.2 7.8 0.00 0.19 0.00 97 1022.5
20260507083005 52 202 5.2 7.8 0.00 0.19 0.00 95 1022.5
20260507081005 53 211 3.5 7.0 0.00 0.19 0.00 94 1022.3
20260507080005 53 192 3.5 7.0 0.00 0.19 0.00 94 1022.3
20260507075005 53 210 1.7 7.0 0.00 0.19 0.00 94 1022.4
20260507074004 52 210 4.3 7.0 0.00 0.19 0.00 93 1022.3
20260507073005 51 210 2.6 7.0 0.00 0.19 0.00 96 1022.4